(266171) = 2006 UL253

Discovered at Mount Lemmon on 2006-10-27 by Mt. Lemmon Survey.

Orbit

Orbit type: Main Belt

Note: WebGL enabled browser required.

epoch2023-09-13.0
epoch JD2460200.5
perihelion date2021-08-27.68746
perihelion JD2459454.18746
argument of perihelion (°)71.25775
ascending node (°)39.92401
inclination (°)7.51127
eccentricity0.0569358
perihelion distance (AU)2.1925747
Tisserand w.r.t. Jupiter3.6
ΔV w.r.t. Earth (km/sec)9.5
semimajor axis (AU)2.3249474
mean anomaly (°)207.49368
mean daily motion (°/day)0.27802520
aphelion distance (AU)2.457
period (years)3.55
P-vector [x]-0.35611282
P-vector [y]0.80053785
P-vector [z]0.48199877
Q-vector [x]-0.93066944
Q-vector [y]-0.35015919
Q-vector [z]-0.10603272
absolute magnitude17.39
phase slope0.15
uncertainty0
referenceMPEC 2023-R13
observations used315
oppositions12
arc length (days)7169
first opposition used2004
last opposition used2023
residual rms (arc-secs)0.79
perturbers coarse indicatorM-v
perturbers precise indicator003Ek
first observation date used2004-01-18.0
last observation date used2023-09-04.0
computer nameMPCLINUX
JD of orbit computation2456639.710287
perihelion JD uncertainty (days)5.6644E-04
argument of perihelion uncertainty (°)1.6411E-04
ascending node uncertainty (°)3.8903E-05
inclination uncertainty (°)1.2710E-05
eccentricity uncertainty 4.5219E-08
perihelion distance uncertainty (AU)1.1507E-07
Minimum Orbit Intersection Distances (in AU)
for orbit epoch: 2460200.5, reference: E2023-S29
Mercury1.86408
Venus1.47818
Earth1.22127
Mars0.57834
Jupiter2.59587
Saturn6.86418
Uranus16.2021
Neptune27.5157

Observations

326 total observations over interval: 2004 01 18.25125 – 2023 09 16.273248
These data are available for download (format description).

Date (UT) J2000 RA J2000 Dec Magn Location Ref
2004 01 18.25125 09 16 31.17 +29 46 12.7 19.5   644 – Palomar Mountain/NEAT MPS 244763
2004 01 18.31808 09 16 27.17 +29 46 39.3 19.6   644 – Palomar Mountain/NEAT MPS 244763
2004 01 18.38598 09 16 23.07 +29 47 06.0 19.4   644 – Palomar Mountain/NEAT MPS 244763
2006 09 26.44540 03 09 09.54 +15 42 26.4 20.1 V G96 – Mt. Lemmon Survey MPS 190625
2006 09 26.45155 03 09 09.46 +15 42 27.0 20.4 V G96 – Mt. Lemmon Survey MPS 190625
2006 09 26.45781 03 09 09.32 +15 42 27.9 20.2 V G96 – Mt. Lemmon Survey MPS 190625
2006 09 26.46413 03 09 09.18 +15 42 28.5 19.9 V G96 – Mt. Lemmon Survey MPS 190625
2006 10 15.33285 02 58 58.09 +16 03 08.9   691 – Steward Observatory, Kitt Peak-Spacewatch MPS 186576
2006 10 15.35026 02 58 57.19 +16 03 09.4   691 – Steward Observatory, Kitt Peak-Spacewatch MPS 186576
2006 10 15.36823 02 58 56.28 +16 03 09.3   691 – Steward Observatory, Kitt Peak-Spacewatch MPS 186576
2006 10 27.34390 02 47 21.04 +16 00 41.2 20.0 V G96 – Mt. Lemmon Survey MPS 185804
2006 10 27.35389 02 47 20.36 +16 00 40.8 20.1 V G96 – Mt. Lemmon Survey MPS 185804
2006 10 27.36390 02 47 19.68 +16 00 40.5 19.9 V G96 – Mt. Lemmon Survey MPS 185804
2006 10 27.37389 02 47 19.03 +16 00 40.0 19.9 V G96 – Mt. Lemmon Survey MPS 185804
2006 10 28.33084 02 46 16.91 +16 00 02.7 20.7 V 691 – Steward Observatory, Kitt Peak-Spacewatch MPS 185804
2006 10 28.34825 02 46 15.71 +16 00 02.2 20.3 V 691 – Steward Observatory, Kitt Peak-Spacewatch MPS 185804
2006 10 28.36618 02 46 14.50 +16 00 01.3 20.9 V 691 – Steward Observatory, Kitt Peak-Spacewatch MPS 185804
2006 11 01.32979 02 41 50.94 +15 56 52.4 20.5 V 691 – Steward Observatory, Kitt Peak-Spacewatch MPS 185804
2006 11 01.35048 02 41 49.48 +15 56 51.4 20.2 V 691 – Steward Observatory, Kitt Peak-Spacewatch MPS 185804
2006 11 01.36781 02 41 48.28 +15 56 50.4 20.2 V 691 – Steward Observatory, Kitt Peak-Spacewatch MPS 185804
2006 11 12.27854 02 29 33.72 +15 45 34.7 19.9 V G96 – Mt. Lemmon Survey MPS 187201
2006 11 12.28302 02 29 33.43 +15 45 34.1 20.0 V G96 – Mt. Lemmon Survey MPS 187201
2006 11 12.28747 02 29 33.14 +15 45 33.9 19.9 V G96 – Mt. Lemmon Survey MPS 187201
2006 11 12.29200 02 29 32.82 +15 45 33.9 20.0 V G96 – Mt. Lemmon Survey MPS 187201
2006 11 17.24917 02 24 18.43 +15 40 24.7 20.0 V 703 – Catalina Sky Survey MPS 187201
2006 11 17.25616 02 24 17.82 +15 40 23.7 20.5 V 703 – Catalina Sky Survey MPS 187201
2006 11 17.26323 02 24 17.42 +15 40 22.4 20.6 V 703 – Catalina Sky Survey MPS 187201
2006 11 17.27028 02 24 16.99 +15 40 21.8 19.4 V 703 – Catalina Sky Survey MPS 187201
2006 11 27.16644 02 15 18.54 +15 33 18.9 20.5 V G96 – Mt. Lemmon Survey MPS 190625
2006 11 27.17483 02 15 18.10 +15 33 18.8 20.4 V G96 – Mt. Lemmon Survey MPS 190625
2006 11 27.18331 02 15 17.67 +15 33 18.5 20.2 V G96 – Mt. Lemmon Survey MPS 190625
2006 11 27.20140 02 15 16.81 +15 33 18.5 20.4 V G96 – Mt. Lemmon Survey MPS 190625
2006 12 15.20306 02 06 26.67 +15 43 30.7 20.7 V G96 – Mt. Lemmon Survey MPS 192382
2006 12 15.21086 02 06 26.56 +15 43 31.7 20.7 V G96 – Mt. Lemmon Survey MPS 192382
2006 12 15.21837 02 06 26.46 +15 43 32.2 20.6 V G96 – Mt. Lemmon Survey MPS 192382
2006 12 15.22593 02 06 26.35 +15 43 33.0 20.9 V G96 – Mt. Lemmon Survey MPS 192382
2008 03 10.44142 13 44 05.09 -04 24 56.3 20.6 V 691 – Steward Observatory, Kitt Peak-Spacewatch MPS 244763
2008 03 10.45911 13 44 04.50 -04 24 54.4 20.2 V 691 – Steward Observatory, Kitt Peak-Spacewatch MPS 244763
2008 03 10.47681 13 44 03.92 -04 24 53.1 20.5 V 691 – Steward Observatory, Kitt Peak-Spacewatch MPS 244763
2008 03 31.22580 13 27 52.71 -03 37 51.3 20.1 V 691 – Steward Observatory, Kitt Peak-Spacewatch MPS 244763
2008 03 31.24339 13 27 51.63 -03 37 48.4 19.9 V 691 – Steward Observatory, Kitt Peak-Spacewatch MPS 244763
2008 03 31.26096 13 27 50.55 -03 37 45.8 20.0 V 691 – Steward Observatory, Kitt Peak-Spacewatch MPS 244763
2008 04 03.23337 13 24 50.64 -03 29 42.8 20.2 V 691 – Steward Observatory, Kitt Peak-Spacewatch MPS 245794
2008 04 03.25094 13 24 49.51 -03 29 40.2 20.0 V 691 – Steward Observatory, Kitt Peak-Spacewatch MPS 245794
2008 04 03.26851 13 24 48.43 -03 29 37.2 20.0 V 691 – Steward Observatory, Kitt Peak-Spacewatch MPS 245794
2008 04 05.33024 13 22 40.47 -03 24 06.2 19.8 V G96 – Mt. Lemmon Survey MPS 245794
2008 04 05.33684 13 22 40.04 -03 24 05.2 19.8 V G96 – Mt. Lemmon Survey MPS 245794
2008 04 05.35016 13 22 39.18 -03 24 03.0 20.1 V G96 – Mt. Lemmon Survey MPS 245794
2008 04 25.13710 13 02 41.10 -02 44 52.0 20.1 V 691 – Steward Observatory, Kitt Peak-Spacewatch MPS 247767
2008 04 25.15812 13 02 39.97 -02 44 51.2 20.1 V 691 – Steward Observatory, Kitt Peak-Spacewatch MPS 247767
2008 04 25.17660 13 02 38.87 -02 44 49.1 20.0 V 691 – Steward Observatory, Kitt Peak-Spacewatch MPS 247767
2008 04 27.13365 13 00 56.10 -02 43 10.0 20.1 V 691 – Steward Observatory, Kitt Peak-Spacewatch MPS 248182
2008 04 27.15467 13 00 54.99 -02 43 09.4 20.1 V 691 – Steward Observatory, Kitt Peak-Spacewatch MPS 248182
2008 04 27.17571 13 00 53.90 -02 43 08.2 20.4 V 691 – Steward Observatory, Kitt Peak-Spacewatch MPS 248182
2010 12 29.27232 08 10 37.59 +32 37 18.0 19.6 V 703 – Catalina Sky Survey MPS 362996
2010 12 29.27751 08 10 37.38 +32 37 20.3 19.5 V 703 – Catalina Sky Survey MPS 362996
2010 12 29.28274 08 10 37.12 +32 37 22.2 20.2 V 703 – Catalina Sky Survey MPS 362996
2010 12 29.28803 08 10 36.66 +32 37 24.5 20.4 V 703 – Catalina Sky Survey MPS 362996
2011 01 13.38046 07 54 10.69 +34 04 02.7 20.1 V G96 – Mt. Lemmon Survey MPS 365642
2011 01 13.38810 07 54 10.08 +34 04 04.6 20.2 V G96 – Mt. Lemmon Survey MPS 365642
2011 01 13.39575 07 54 09.50 +34 04 06.8 20.2 V G96 – Mt. Lemmon Survey MPS 365642
2011 01 13.40338 07 54 08.92 +34 04 08.7 20.3 V G96 – Mt. Lemmon Survey MPS 365642
2011 01 25.29336 07 39 53.31 +34 40 48.1 19.9 V G96 – Mt. Lemmon Survey MPS 367064
2011 01 25.30084 07 39 52.77 +34 40 48.7 19.9 V G96 – Mt. Lemmon Survey MPS 367064
2011 01 25.30832 07 39 52.23 +34 40 49.6 19.8 V G96 – Mt. Lemmon Survey MPS 367064
2013 10 03.41814 02 07 33.834 +08 56 37.82 20.2 w F51 – Pan-STARRS 1, Haleakala MPS 479829
2013 10 03.43346 02 07 33.031 +08 56 36.52 20.3 w F51 – Pan-STARRS 1, Haleakala MPS 479829
2013 10 03.44860 02 07 32.235 +08 56 35.28 20.3 w F51 – Pan-STARRS 1, Haleakala MPS 479829
2013 10 06.17674 02 05 10.08 +08 52 16.3 20.5 V 691 – Steward Observatory, Kitt Peak-Spacewatch MPS 482042
2013 10 06.19438 02 05 09.09 +08 52 15.0 20.1 V 691 – Steward Observatory, Kitt Peak-Spacewatch MPS 482042
2013 10 06.21202 02 05 08.17 +08 52 13.3 20.3 V 691 – Steward Observatory, Kitt Peak-Spacewatch MPS 482042
2013 10 08.20504 02 03 17.99 +08 48 48.1 20.0 r I41 – Palomar Mountain--ZTF MPS 482042
2013 10 08.24159 02 03 15.85 +08 48 44.4 20.1 r I41 – Palomar Mountain--ZTF MPS 482042
2013 10 08.27511 02 03 13.88 +08 48 41.0 20.0 r I41 – Palomar Mountain--ZTF MPS 482042
2013 10 08.75420 02 02 46.45 +08 47 49.9 20.4 R D29 – Purple Mountain Observatory, XuYi Station MPS 482042
2013 10 08.77409 02 02 45.18 +08 47 47.8 20.2 R D29 – Purple Mountain Observatory, XuYi Station MPS 482042
2013 10 08.79397 02 02 43.98 +08 47 45.3 20.9 R D29 – Purple Mountain Observatory, XuYi Station MPS 482042
2013 10 11.34139 02 00 15.42 +08 43 04.0 20.1 V 703 – Catalina Sky Survey MPS 482042
2013 10 11.34647 02 00 14.99 +08 43 03.6 20.0 V 703 – Catalina Sky Survey MPS 482042
2013 10 11.35154 02 00 14.65 +08 43 02.6 19.8 V 703 – Catalina Sky Survey MPS 482042
2013 10 23.26346 01 47 39.93 +08 19 19.4 19.4 V G96 – Mt. Lemmon Survey MPS 483420
2013 10 23.26869 01 47 39.58 +08 19 18.4 19.5 V G96 – Mt. Lemmon Survey MPS 483420
2013 10 23.27390 01 47 39.22 +08 19 18.1 19.6 V G96 – Mt. Lemmon Survey MPS 483420
2013 10 23.27913 01 47 38.86 +08 19 17.6 19.6 V G96 – Mt. Lemmon Survey MPS 483420
2013 11 05.65085 01 33 46.29 +07 57 47.1 21.2 R D29 – Purple Mountain Observatory, XuYi Station MPS 486920
2013 11 05.67074 01 33 45.07 +07 57 45.3 21.9 R D29 – Purple Mountain Observatory, XuYi Station MPS 486920
2013 11 08.17538 01 31 26.60 +07 55 20.5 20.0 V G96 – Mt. Lemmon Survey MPS 488251
2013 11 08.18388 01 31 26.11 +07 55 20.5 20.1 V G96 – Mt. Lemmon Survey MPS 488251
